Location: Bettgenhausen
(50.6463°N, 7.5681°E)
Time: 11:06:03
(UTC+00:00)

ATLAS 3B R/B - Pass Details

Date: 27 February 2020
Orbit: 1029 x 1166 km, 63.8° (Epoch: 12 March)

Event Time Altitude Azimuth Distance (km) Brightness Sun altitude
Rises 17:33:04 0° 298° (WNW) 3,785 6.6 -5.0°
Reaches altitude 10° 17:36:08 10° 311° (NW) 2,836 5.6 -5.4°
Maximum altitude 17:41:43 27° 8° (N) 1,879 3.9 -6.3°
Drops below altitude 10° 17:47:22 10° 64° (ENE) 2,878 4.4 -7.2°
Enters shadow 17:48:14 - 69° (ENE) 3,134 4.5 -7.3°
